Weather History for KBRL - May, 2013

Change the Weather History Date:

Saturday, May 25, 2013

  Actual Average Record
Temperature  
Mean Temperature 55 °F 66 °F  
Max Temperature 60 °F 77 °F 95 °F (1911)
Min Temperature 49 °F 56 °F 35 °F (1925)
Degree Days  
Heating Degree Days 10 2  
Month to date heating degree days 133 114  
Since 1 July heating degree days 5907 5576  
Cooling Degree Days 0 4  
Month to date cooling degree days 61 56  
Year to date cooling degree days 72 76  
Growing Degree Days 4 (Base 50)    
Moisture  
Dew Point 47 °F    
Average Humidity 70    
Maximum Humidity 93    
Minimum Humidity 46    
Precipitation  
Precipitation 0.79 in 0.15 in 2.60 in (2011)
Month to date precipitation 6.20 3.96  
Year to date precipitation 17.90 13.37  
Sea Level Pressure  
Sea Level Pressure 30.27 in    
Wind  
Wind Speed 10 mph (ESE)    
Max Wind Speed 17 mph    
Max Gust Speed 24 mph    
Visibility 8 miles    
Events Rain , Thunderstorm    
T = Trace of Precipitation, MM = Missing Value Source: NWS Daily Summary

Daily Weather History Graph

Daily Weather History Graph

Search for Another Location

Airport or City:

Trip Planner

Search our weather history database for the weather conditions in past years. The results will help you decide how hot, cold, wet, or windy it might be!

Date:

Astronomy

May. 25, 2013 Rise Set
Actual Time 5:39 AM CDT 8:24 PM CDT
Civil Twilight 5:06 AM CDT 8:56 PM CDT
Nautical Twilight 4:26 AM CDT 9:37 PM CDT
Astronomical Twilight 3:40 AM CDT 10:23 PM CDT
Moon 9:12 PM CDT (5/25) 6:06 AM CDT (5/25)
Length of Visible Light 15h 49m
Length of Day
14h 45m
Full, 100% of the Moon is Illuminated
May 25
Full
May 31
Last Quarter
Jun 8
New
Jun 16
First Quarter
Jun 23
Full

Hourly Weather History & Observations

Time (CDT) Temp. Dew Point Humidity Pressure Visibility Wind Dir Wind Speed Gust Speed Precip Events Conditions
12:53 AM 60.1 °F 39.9 °F 47% 30.24 in 10.0 mi East 11.5 mph - N/A   Mostly Cloudy
1:53 AM 59.0 °F 41.0 °F 51% 30.23 in 10.0 mi SSE 8.1 mph - N/A   Scattered Clouds
2:53 AM 57.9 °F 43.0 °F 58% 30.27 in 10.0 mi East 3.5 mph - N/A   Mostly Cloudy
3:53 AM 55.9 °F 45.0 °F 67% 30.30 in 10.0 mi ENE 8.1 mph - 0.00 in   Overcast
4:53 AM 54.0 °F 45.0 °F 72% 30.31 in 10.0 mi ESE 6.9 mph - 0.02 in   Overcast
5:53 AM 54.0 °F 44.1 °F 69% 30.28 in 10.0 mi SE 9.2 mph - N/A   Overcast
6:53 AM 55.0 °F 42.1 °F 62% 30.29 in 10.0 mi SE 11.5 mph - N/A   Mostly Cloudy
7:53 AM 53.1 °F 44.1 °F 71% 30.29 in 10.0 mi SE 10.4 mph - 0.00 in Rain Light Rain
8:53 AM 51.1 °F 46.0 °F 83% 30.31 in 5.0 mi SE 8.1 mph - 0.06 in Rain Rain
9:53 AM 50.0 °F 46.9 °F 89% 30.37 in 5.0 mi ENE 3.5 mph - 0.13 in Rain Rain
10:06 AM 50.0 °F 48.2 °F 94% 30.39 in 3.0 mi South 3.5 mph - 0.05 in Rain , Thunderstorm Rain
10:14 AM 50.0 °F 48.2 °F 94% 30.40 in 2.5 mi Calm Calm - 0.07 in Rain , Thunderstorm Rain
10:28 AM 50.0 °F 48.2 °F 94% 30.38 in 1.8 mi ESE 3.5 mph - 0.13 in Rain , Thunderstorm Heavy Thunderstorms and Rain
10:37 AM 50.0 °F 48.2 °F 94% 30.37 in 2.0 mi East 3.5 mph - 0.18 in Rain , Thunderstorm Heavy Thunderstorms and Rain
10:46 AM 50.0 °F 48.2 °F 94% 30.37 in 3.0 mi ESE 4.6 mph - 0.22 in Rain Rain
10:53 AM 50.0 °F 48.9 °F 96% 30.36 in 2.5 mi SE 8.1 mph - 0.26 in Rain Rain
11:05 AM 50.0 °F 48.2 °F 94% 30.30 in 2.5 mi ESE 12.7 mph - 0.06 in Rain , Thunderstorm Heavy Rain
11:14 AM 50.0 °F 48.2 °F 94% 30.26 in 3.0 mi ESE 15.0 mph 20.7 mph 0.09 in Rain Rain
11:18 AM 48.2 °F 48.2 °F 100% 30.29 in 3.0 mi SSE 10.4 mph 20.7 mph 0.10 in Rain , Thunderstorm Rain
11:48 AM 50.0 °F 48.2 °F 94% 30.26 in 5.0 mi SE 13.8 mph 20.7 mph 0.19 in Rain Light Rain
11:53 AM 50.0 °F 48.0 °F 93% 30.29 in 7.0 mi SE 9.2 mph - 0.20 in Rain Light Rain
12:53 PM 50.0 °F 48.9 °F 96% 30.28 in 4.0 mi ESE 8.1 mph - 0.11 in Rain Rain
1:34 PM 51.8 °F 50.0 °F 94% 30.23 in 10.0 mi SE 11.5 mph 19.6 mph 0.01 in   Mostly Cloudy
1:53 PM 53.1 °F 50.0 °F 89% 30.23 in 10.0 mi SE 15.0 mph 21.9 mph 0.01 in   Mostly Cloudy
1:59 PM 53.6 °F 51.8 °F 94% 30.22 in 10.0 mi SE 15.0 mph 20.7 mph N/A   Mostly Cloudy
2:29 PM 53.6 °F 48.2 °F 82% 30.22 in 10.0 mi South 16.1 mph 23.0 mph N/A   Overcast
2:53 PM 55.0 °F 48.9 °F 80% 30.22 in 10.0 mi SSE 12.7 mph 19.6 mph N/A   Overcast
3:22 PM 55.4 °F 48.2 °F 77% 30.23 in 10.0 mi SE 6.9 mph - N/A   Overcast
3:53 PM 55.9 °F 48.9 °F 77% 30.24 in 10.0 mi East 8.1 mph - N/A   Overcast
4:53 PM 55.0 °F 50.0 °F 83% 30.23 in 10.0 mi East 10.4 mph - N/A   Overcast
5:19 PM 55.4 °F 48.2 °F 77% 30.22 in 10.0 mi East 12.7 mph 18.4 mph N/A   Overcast
5:27 PM 55.4 °F 48.2 °F 77% 30.23 in 10.0 mi East 10.4 mph - N/A   Overcast
5:53 PM 54.0 °F 48.9 °F 83% 30.24 in 10.0 mi East 12.7 mph - N/A   Overcast
6:53 PM 53.1 °F 48.9 °F 86% 30.22 in 10.0 mi East 13.8 mph - N/A   Overcast
7:21 PM 53.6 °F 48.2 °F 82% 30.22 in 10.0 mi East 12.7 mph - N/A   Overcast
7:53 PM 53.1 °F 48.0 °F 83% 30.22 in 10.0 mi East 11.5 mph 19.6 mph N/A   Overcast
8:53 PM 53.1 °F 48.9 °F 86% 30.22 in 10.0 mi ESE 8.1 mph - N/A   Overcast
9:53 PM 53.1 °F 48.9 °F 86% 30.23 in 10.0 mi East 10.4 mph - N/A   Overcast
10:24 PM 53.6 °F 48.2 °F 82% 30.22 in 10.0 mi East 11.5 mph 20.7 mph N/A   Overcast
10:53 PM 53.1 °F 48.9 °F 86% 30.23 in 10.0 mi East 12.7 mph 17.3 mph N/A   Overcast
11:53 PM 53.1 °F 48.9 °F 86% 30.23 in 10.0 mi ESE 9.2 mph - 0.00 in   Overcast